669  
ASCA44 KEWX 160820  
RWRMX  
 
LATIN AMERICA AND CARIBBEAN REGIONAL WEATHER ROUNDUP  
NATIONAL WEATHER SERVICE AUSTIN/SAN ANTONIO TX  
300 AM CDT THU AUG 16 2018  
 
NOTE: "FAIR" INDICATED FEW OR NO CLOUDS BELOW 12,000 FEET WITH NO  
SIGNIFICANT WEATHER AND/OR S TO VISIBILITY
.  
 
BAJA CALIFORNIA  
 
CITY SKY/WX TMP DP RH WIND PRES REMARKS
 
MEXICALI CLEAR 86 73 66 SE10 29.84 HX 93  
S.J. DEL CABO N/A N/A N/A N/A MISG N/A  
TIJUANA CLEAR 70 64 83 CALM 29.99S  
 
NORTHWESTERN MEXICO  
 
CITY SKY/WX TMP DP RH WIND PRES REMARKS
 
CULIACAN MOCLDY 81 77 89 CALM 29.92  
HERMOSILLO MOCLDY 82 73 74 E5 29.97  
 
NORTHEASTERN MEXICO  
 
CITY SKY/WX TMP DP RH WIND PRES REMARKS
 
MONCLOVA N/A N/A N/A N/A MISG N/A  
MONTERREY CLEAR 79 68 69 E12 29.97S  
REYNOSA N/A N/A N/A N/A MISG N/A  
CD. VICTORIA N/A N/A N/A N/A MISG N/A  
 
WESTERN MEXICO  
 
CITY SKY/WX TMP DP RH WIND PRES REMARKS
 
AGUASCALIENTES N/A N/A N/A N/A MISG N/A  
COLIMA N/A N/A N/A N/A MISG N/A  
GUADALAJARA MOCLDY 66 59 77 E6 30.22  
MAZATLAN PTCLDY 79 79 100 NE3 29.93S  
P. VALLARTA CLEAR 77 77 100 N7 29.93S  
URUAPAN N/A N/A N/A N/A MISG N/A  
ZACATECAS CLEAR 55 48 76 S12 30.32F  
 
CENTRAL MEXICO  
 
CITY SKY/WX TMP DP RH WIND PRES REMARKS
 
CUERNAVACA N/A N/A N/A N/A MISG N/A  
MEXICO CITY MOCLDY 59 54 82 CALM 30.39S  
MORELIA CLOUDY 57 57 100 CALM 30.30  
POZA RICA N/A N/A N/A N/A MISG N/A  
S. LUIS POTOSI PTCLDY 63 54 72 E14 30.31R  
TOLUCA MOCLDY 52 50 93 NE5 30.46R  
 
SOUTHERN MEXICO  
 
CITY SKY/WX TMP DP RH WIND PRES REMARKS
 
ACAPULCO MOCLDY 81 75 83 CALM 29.91F  
B. DE HUATULCO N/A N/A N/A N/A MISG N/A  
P. ESCONDIDO N/A N/A N/A N/A MISG N/A  
VERACRUZ N/A N/A N/A N/A MISG N/A  
 
YUCATAN PENINSULA  
 
CITY SKY/WX TMP DP RH WIND PRES REMARKS
 
CAMPECHE N/A N/A N/A N/A MISG N/A  
CANCUN MOCLDY 81 75 83 NE6 29.98F  
CHETUMAL N/A N/A N/A N/A MISG N/A  
CD. DEL CARMEN N/A N/A N/A N/A MISG N/A  
COZUMEL PTCLDY 79 77 94 CALM 29.96F  
MERIDA CLEAR 79 73 83 E7 29.99F  
MINATITLAN N/A N/A N/A N/A MISG N/A  
TAPACHULA N/A N/A N/A N/A MISG N/A  
 
CENTRAL AMERICA  
 
CITY SKY/WX TMP DP RH WIND PRES REMARKS
 
 
CARIBBEAN  
 
CITY SKY/WX TMP DP RH WIND PRES REMARKS
 
ARUBA PTCLDY 82 75 78 E18 29.92S  
CURACAO N/A 81 73 78 E15 29.94S  
KINGSTON PTCLDY 82 72 69 NW7 29.94S  
NASSAU PTCLDY 81 75 83 SE7 30.11S  
SAN JUAN LGT RAIN 77 72 83 E8 30.04S  
SANTO DOMINGO PTCLDY 75 73 94 NE5 30.00F  
ST. CROIX CLEAR 81 73 78 NE10 30.02  
ST. MAARTEN PTCLDY 81 73 78 E12 30.03S THUNDER  
ST. THOMAS CLEAR 81 73 78 E6 30.02  
 

 
 
 
 
CLICK HERE TO GO TO PREVIOUS BULLETINS.

The Nexlab HPC Page Main Text Page